USA 113

Last updated on June 27, 2019, 3:44 a.m. UTC

1 23628U 95038A   19177.29901295 -.00000336  00000-0  00000+0 0  9990
2 23628  11.1024  32.7202 0000793 357.6279  95.2336  1.00270813  6068
UTC
Height (km)
Latitude
Longitude
Inclination
Orbital Period
UTC large
Height (km)
Speed (km/s)
/
Latitude / Longitude
Inclination (degrees)
Orbital Period (minutes)
Azimuth
Elevation
Range (km)
Doppler Factor
iOS Compass Heading
iOS Angle

Next 30 passes for location: Hong Kong

Rise time Rise Azimuth (degrees) Set time Set Azimuth (degrees) Duration Max altitude (degrees)

No matching passes for this satellites